DAL1209 KPDX-KSLC

Flight info

Callsign DAL1209
Flight time 1h 18m
Altitude 35000
Route WHAMY5 IMB J15 BOI BYI SKEES6
Aircraft A321/M-SDE3FGHIRWY/LB1

Departure

Time 2026-05-07 19:13
Airport Portland International Airport (KPDX)

Arrival

Time 2026-05-07 20:31
Airport Salt Lake City International Airport (KSLC)
Time Latitude Longitude Altitude Speed Heading
2026-05-07 18:59 45.58960 -122.59689 29 ft 0 kts 208°
2026-05-07 19:03 45.58969 -122.59682 37 ft 4 kts 211°
2026-05-07 19:03 45.58991 -122.59660 29 ft 4 kts 224°
2026-05-07 19:04 45.59008 -122.59631 29 ft 4 kts 248°
2026-05-07 19:04 45.59011 -122.59600 29 ft 2 kts 298°
2026-05-07 19:04 45.59010 -122.59598 29 ft 0 kts 299°
2026-05-07 19:07 45.59020 -122.59625 29 ft 9 kts 299°
2026-05-07 19:07 45.59058 -122.59725 29 ft 12 kts 298°
2026-05-07 19:08 45.59103 -122.59833 29 ft 13 kts 302°
2026-05-07 19:08 45.59141 -122.59970 28 ft 21 kts 276°
2026-05-07 19:08 45.59050 -122.60132 28 ft 23 kts 209°
2026-05-07 19:08 45.58915 -122.60222 28 ft 19 kts 174°
2026-05-07 19:09 45.58837 -122.60086 29 ft 18 kts 120°
2026-05-07 19:09 45.58778 -122.59938 29 ft 17 kts 119°
2026-05-07 19:09 45.58717 -122.59776 29 ft 19 kts 118°
2026-05-07 19:09 45.58653 -122.59609 29 ft 19 kts 120°
2026-05-07 19:10 45.58587 -122.59444 29 ft 20 kts 120°
2026-05-07 19:10 45.58523 -122.59278 28 ft 19 kts 119°
2026-05-07 19:10 45.58461 -122.59124 28 ft 17 kts 120°
2026-05-07 19:10 45.58403 -122.58974 28 ft 18 kts 117°
2026-05-07 19:11 45.58340 -122.58811 29 ft 18 kts 119°
2026-05-07 19:11 45.58275 -122.58642 29 ft 24 kts 117°
2026-05-07 19:11 45.58187 -122.58413 28 ft 23 kts 124°
2026-05-07 19:11 45.58162 -122.58376 28 ft 0 kts 142°
2026-05-07 19:12 45.58161 -122.58376 28 ft 1 kts 143°
2026-05-07 19:12 45.58092 -122.58394 28 ft 16 kts 226°
2026-05-07 19:12 45.58112 -122.58533 30 ft 16 kts 300°
2026-05-07 19:12 45.58238 -122.58855 30 ft 70 kts 299°
2026-05-07 19:13 45.58578 -122.59732 30 ft 129 kts 299°
2026-05-07 19:13 45.59090 -122.61049 45 ft 171 kts 298°
2026-05-07 19:13 45.59675 -122.62544 643 ft 171 kts 301°
2026-05-07 19:13 45.60322 -122.64004 1307 ft 175 kts 299°
2026-05-07 19:14 45.60988 -122.65488 1882 ft 182 kts 302°
2026-05-07 19:14 45.61685 -122.67087 2241 ft 196 kts 301°
2026-05-07 19:14 45.62423 -122.68805 2548 ft 210 kts 300°
2026-05-07 19:14 45.63213 -122.70708 2775 ft 236 kts 298°
2026-05-07 19:15 45.64076 -122.72825 3203 ft 255 kts 300°
2026-05-07 19:15 45.64976 -122.75045 3949 ft 259 kts 300°
2026-05-07 19:15 45.65892 -122.77289 4761 ft 263 kts 300°
2026-05-07 19:15 45.66711 -122.79592 5602 ft 266 kts 290°
2026-05-07 19:16 45.67030 -122.82240 6230 ft 275 kts 269°
2026-05-07 19:16 45.66707 -122.84934 7092 ft 277 kts 253°
2026-05-07 19:16 45.66064 -122.87520 7942 ft 276 kts 253°
2026-05-07 19:16 45.65288 -122.90030 8694 ft 280 kts 236°
2026-05-07 19:17 45.63818 -122.91869 9401 ft 288 kts 207°
2026-05-07 19:17 45.61841 -122.92432 10096 ft 298 kts 177°
2026-05-07 19:17 45.59757 -122.91800 10411 ft 318 kts 167°
2026-05-07 19:17 45.57565 -122.90857 10546 ft 342 kts 160°
2026-05-07 19:18 45.55432 -122.89134 10679 ft 365 kts 143°
2026-05-07 19:18 45.53618 -122.86542 10826 ft 385 kts 127°
2026-05-07 19:18 45.52285 -122.83184 11239 ft 394 kts 114°
2026-05-07 19:18 45.51178 -122.79589 11844 ft 399 kts 114°
2026-05-07 19:19 45.50046 -122.75956 12432 ft 403 kts 114°
2026-05-07 19:19 45.48900 -122.72287 12965 ft 408 kts 114°
2026-05-07 19:19 45.47739 -122.68570 13510 ft 413 kts 114°
2026-05-07 19:19 45.46567 -122.64820 14068 ft 417 kts 114°
2026-05-07 19:20 45.45383 -122.61032 14556 ft 420 kts 114°
2026-05-07 19:20 45.44190 -122.57208 15057 ft 423 kts 114°
2026-05-07 19:20 45.42992 -122.53369 15547 ft 426 kts 114°
2026-05-07 19:20 45.41781 -122.49502 16045 ft 429 kts 114°
2026-05-07 19:21 45.40561 -122.45612 16530 ft 432 kts 114°
2026-05-07 19:21 45.39331 -122.41699 17030 ft 435 kts 114°
2026-05-07 19:21 45.38089 -122.37759 17499 ft 438 kts 114°
2026-05-07 19:21 45.36837 -122.33793 17941 ft 442 kts 114°
2026-05-07 19:22 45.35573 -122.29798 18422 ft 445 kts 114°
2026-05-07 19:22 45.34299 -122.25772 18816 ft 448 kts 114°
2026-05-07 19:22 45.33017 -122.21725 19209 ft 450 kts 114°
2026-05-07 19:22 45.31730 -122.17656 19611 ft 453 kts 114°
2026-05-07 19:23 45.30430 -122.13558 20000 ft 456 kts 114°
2026-05-07 19:23 45.29119 -122.09439 20385 ft 459 kts 114°
2026-05-07 19:23 45.27795 -122.05291 20777 ft 462 kts 114°
2026-05-07 19:23 45.26465 -122.01126 21145 ft 465 kts 114°
2026-05-07 19:24 45.25137 -121.96935 21513 ft 467 kts 113°
2026-05-07 19:24 45.23902 -121.92654 21888 ft 470 kts 110°
2026-05-07 19:24 45.22768 -121.88285 22258 ft 473 kts 109°
2026-05-07 19:24 45.21695 -121.83866 22609 ft 475 kts 108°
2026-05-07 19:25 45.20633 -121.79405 22988 ft 478 kts 108°
2026-05-07 19:25 45.19552 -121.74925 23334 ft 481 kts 108°
2026-05-07 19:25 45.18440 -121.70447 23687 ft 483 kts 109°
2026-05-07 19:25 45.17310 -121.66022 23978 ft 485 kts 109°
2026-05-07 19:26 45.16142 -121.61526 24271 ft 487 kts 110°
2026-05-07 19:26 45.14956 -121.57012 24576 ft 489 kts 110°
2026-05-07 19:26 45.13767 -121.52486 24862 ft 491 kts 110°
2026-05-07 19:26 45.12576 -121.47942 25164 ft 493 kts 109°
2026-05-07 19:27 45.11383 -121.43378 25456 ft 495 kts 109°
2026-05-07 19:27 45.10189 -121.38799 25753 ft 497 kts 109°
2026-05-07 19:27 45.08990 -121.34202 26034 ft 499 kts 109°
2026-05-07 19:27 45.07782 -121.29588 26333 ft 501 kts 109°
2026-05-07 19:28 45.06571 -121.24967 26615 ft 503 kts 109°
2026-05-07 19:28 45.05349 -121.20323 26883 ft 505 kts 109°
2026-05-07 19:28 45.04123 -121.15678 27233 ft 504 kts 109°
2026-05-07 19:28 45.02901 -121.11047 27614 ft 502 kts 109°
2026-05-07 19:29 45.01679 -121.06422 27972 ft 502 kts 109°
2026-05-07 19:29 45.00454 -121.01800 28321 ft 502 kts 109°
2026-05-07 19:29 44.99229 -120.97191 28687 ft 501 kts 109°
2026-05-07 19:29 44.98006 -120.92587 29040 ft 501 kts 109°
2026-05-07 19:30 44.96781 -120.87985 29412 ft 500 kts 110°
2026-05-07 19:30 44.95555 -120.83392 29770 ft 500 kts 110°
2026-05-07 19:30 44.94323 -120.78787 30047 ft 502 kts 109°
2026-05-07 19:30 44.93088 -120.74173 30300 ft 503 kts 110°
2026-05-07 19:31 44.91851 -120.69561 30588 ft 503 kts 110°
2026-05-07 19:31 44.90611 -120.64953 30888 ft 503 kts 110°
2026-05-07 19:31 44.89366 -120.60343 31193 ft 502 kts 110°
2026-05-07 19:31 44.88124 -120.55751 31504 ft 502 kts 110°
2026-05-07 19:32 44.86879 -120.51155 31799 ft 501 kts 110°
2026-05-07 19:32 44.85636 -120.46567 32113 ft 501 kts 110°
2026-05-07 19:32 44.84391 -120.41983 32420 ft 501 kts 110°
2026-05-07 19:32 44.83143 -120.37399 32735 ft 500 kts 110°
2026-05-07 19:33 44.81898 -120.32831 33043 ft 500 kts 110°
2026-05-07 19:33 44.80648 -120.28263 33359 ft 500 kts 110°
2026-05-07 19:33 44.79412 -120.23755 33660 ft 499 kts 110°
2026-05-07 19:33 44.78159 -120.19193 33954 ft 499 kts 110°
2026-05-07 19:34 44.76907 -120.14635 34210 ft 500 kts 110°
2026-05-07 19:34 44.75648 -120.10064 34403 ft 501 kts 110°
2026-05-07 19:34 44.74385 -120.05483 34643 ft 501 kts 110°
2026-05-07 19:34 44.73123 -120.00911 34891 ft 501 kts 110°
2026-05-07 19:35 44.71861 -119.96343 35032 ft 502 kts 110°
2026-05-07 19:35 44.70595 -119.91781 35067 ft 501 kts 110°
2026-05-07 19:35 44.68056 -119.82670 35066 ft 500 kts 110°
2026-05-07 19:36 44.65515 -119.73573 35065 ft 500 kts 110°
2026-05-07 19:36 44.62945 -119.64495 35063 ft 500 kts 111°
2026-05-07 19:37 44.60300 -119.55473 35062 ft 500 kts 111°
2026-05-07 19:37 44.57649 -119.46516 35066 ft 500 kts 111°
2026-05-07 19:38 44.54990 -119.37503 35058 ft 500 kts 111°
2026-05-07 19:38 44.52329 -119.28486 35054 ft 500 kts 111°
2026-05-07 19:39 44.49664 -119.19462 35056 ft 501 kts 111°
2026-05-07 19:39 44.46991 -119.10451 35057 ft 501 kts 111°
2026-05-07 19:40 44.44310 -119.01440 35056 ft 501 kts 111°
2026-05-07 19:40 44.41615 -118.92444 35062 ft 502 kts 111°
2026-05-07 19:41 44.38915 -118.83444 35078 ft 502 kts 111°
2026-05-07 19:41 44.36232 -118.74488 35066 ft 503 kts 111°
2026-05-07 19:42 44.33509 -118.65479 35057 ft 503 kts 111°
2026-05-07 19:42 44.30766 -118.56475 35058 ft 504 kts 111°
2026-05-07 19:43 44.28026 -118.47478 35043 ft 504 kts 111°
2026-05-07 19:43 44.25277 -118.38486 35041 ft 504 kts 111°
2026-05-07 19:44 44.22523 -118.29497 35038 ft 504 kts 111°
2026-05-07 19:44 44.19765 -118.20515 35047 ft 504 kts 111°
2026-05-07 19:45 44.16987 -118.11539 35024 ft 505 kts 111°
2026-05-07 19:45 44.14225 -118.02608 35019 ft 505 kts 111°
2026-05-07 19:46 44.11441 -117.93634 35019 ft 505 kts 111°
2026-05-07 19:46 44.08646 -117.84664 35012 ft 506 kts 111°
2026-05-07 19:47 44.05835 -117.75696 35006 ft 506 kts 111°
2026-05-07 19:47 44.03012 -117.66721 35013 ft 506 kts 111°
2026-05-07 19:48 44.00205 -117.57826 35027 ft 507 kts 111°
2026-05-07 19:48 43.97367 -117.48854 35021 ft 507 kts 111°
2026-05-07 19:49 43.94532 -117.39893 35016 ft 507 kts 111°
2026-05-07 19:49 43.91680 -117.30943 35015 ft 507 kts 112°
2026-05-07 19:50 43.88821 -117.22005 35017 ft 507 kts 112°
2026-05-07 19:50 43.85965 -117.13074 35043 ft 507 kts 112°
2026-05-07 19:51 43.83094 -117.04149 35038 ft 507 kts 112°
2026-05-07 19:51 43.80215 -116.95239 35049 ft 508 kts 112°
2026-05-07 19:52 43.77329 -116.86322 35049 ft 508 kts 112°
2026-05-07 19:52 43.74438 -116.77399 35059 ft 508 kts 112°
2026-05-07 19:53 43.71545 -116.68553 35064 ft 508 kts 112°
2026-05-07 19:53 43.68631 -116.59664 35064 ft 508 kts 112°
2026-05-07 19:54 43.65716 -116.50770 35063 ft 508 kts 112°
2026-05-07 19:54 43.62797 -116.41877 35049 ft 508 kts 112°
2026-05-07 19:55 43.59865 -116.33005 35041 ft 509 kts 112°
2026-05-07 19:55 43.56914 -116.24113 35072 ft 510 kts 112°
2026-05-07 19:56 43.54406 -116.16763 35068 ft 511 kts 115°
2026-05-07 19:56 43.51035 -116.08134 35059 ft 512 kts 118°
2026-05-07 19:57 43.47456 -115.99654 35037 ft 512 kts 119°
2026-05-07 19:57 43.43920 -115.91159 35013 ft 512 kts 118°
2026-05-07 19:58 43.40458 -115.82609 35004 ft 512 kts 117°
2026-05-07 19:58 43.37007 -115.74044 34990 ft 512 kts 117°
2026-05-07 19:59 43.33536 -115.65510 34995 ft 512 kts 118°
2026-05-07 19:59 43.30035 -115.56997 34998 ft 512 kts 118°
2026-05-07 20:00 43.26532 -115.48497 34995 ft 512 kts 118°
2026-05-07 20:00 43.23026 -115.39989 34997 ft 512 kts 118°
2026-05-07 20:01 43.19523 -115.31508 34995 ft 512 kts 118°
2026-05-07 20:01 43.16037 -115.23088 34998 ft 511 kts 118°
2026-05-07 20:02 43.12518 -115.14630 34999 ft 511 kts 118°
2026-05-07 20:02 43.08994 -115.06185 35032 ft 511 kts 118°
2026-05-07 20:03 43.05459 -114.97731 35037 ft 512 kts 118°
2026-05-07 20:03 43.01922 -114.89276 35057 ft 513 kts 118°
2026-05-07 20:04 42.98367 -114.80817 35068 ft 513 kts 118°
2026-05-07 20:04 42.94798 -114.72373 35074 ft 513 kts 118°
2026-05-07 20:05 42.91222 -114.63931 35077 ft 513 kts 118°
2026-05-07 20:05 42.87645 -114.55506 35058 ft 513 kts 118°
2026-05-07 20:06 42.84071 -114.47093 35076 ft 513 kts 118°
2026-05-07 20:06 42.80489 -114.38687 35093 ft 513 kts 118°
2026-05-07 20:07 42.78692 -114.34484 34990 ft 513 kts 118°
2026-05-07 20:07 42.76892 -114.30285 34969 ft 514 kts 118°
2026-05-07 20:07 42.73314 -114.21947 34962 ft 514 kts 118°
2026-05-07 20:08 42.69711 -114.13565 34990 ft 514 kts 118°
2026-05-07 20:08 42.66094 -114.05191 35018 ft 513 kts 118°
2026-05-07 20:09 42.62464 -113.96826 35042 ft 514 kts 118°
2026-05-07 20:10 42.56574 -113.84704 35072 ft 515 kts 132°
2026-05-07 20:10 42.51518 -113.77842 35080 ft 515 kts 135°
2026-05-07 20:11 42.46407 -113.71018 34765 ft 515 kts 135°
2026-05-07 20:11 42.43854 -113.67611 34512 ft 515 kts 135°
2026-05-07 20:11 42.41304 -113.64210 34259 ft 515 kts 135°
2026-05-07 20:11 42.38752 -113.60803 34023 ft 515 kts 135°
2026-05-07 20:12 42.36200 -113.57398 33746 ft 516 kts 135°
2026-05-07 20:12 42.33648 -113.53993 33467 ft 516 kts 135°
2026-05-07 20:12 42.31091 -113.50590 33189 ft 516 kts 135°
2026-05-07 20:12 42.28533 -113.47194 32921 ft 516 kts 135°
2026-05-07 20:13 42.25971 -113.43794 32651 ft 516 kts 136°
2026-05-07 20:13 42.23414 -113.40403 32426 ft 515 kts 136°
2026-05-07 20:13 42.20858 -113.37019 32171 ft 514 kts 136°
2026-05-07 20:13 42.18310 -113.33657 31876 ft 511 kts 136°
2026-05-07 20:14 42.15775 -113.30318 31253 ft 509 kts 136°
2026-05-07 20:14 42.13244 -113.26993 30680 ft 506 kts 136°
2026-05-07 20:14 42.10731 -113.23692 30097 ft 504 kts 136°
2026-05-07 20:14 42.08224 -113.20396 29456 ft 501 kts 136°
2026-05-07 20:15 42.05744 -113.17131 28910 ft 497 kts 136°
2026-05-07 20:15 42.03281 -113.13895 28331 ft 493 kts 136°
2026-05-07 20:15 42.00832 -113.10684 27769 ft 489 kts 136°
2026-05-07 20:15 41.98404 -113.07506 27219 ft 486 kts 136°
2026-05-07 20:16 41.95987 -113.04348 26668 ft 482 kts 136°
2026-05-07 20:16 41.93626 -113.01267 26138 ft 478 kts 136°
2026-05-07 20:16 41.91246 -112.98167 25604 ft 475 kts 136°
2026-05-07 20:16 41.88882 -112.95091 25085 ft 471 kts 136°
2026-05-07 20:17 41.86536 -112.92039 24564 ft 467 kts 136°
2026-05-07 20:17 41.84213 -112.89016 24086 ft 463 kts 136°
2026-05-07 20:17 41.81908 -112.86020 23599 ft 459 kts 136°
2026-05-07 20:17 41.79625 -112.83055 23081 ft 454 kts 136°
2026-05-07 20:18 41.77370 -112.80131 22631 ft 448 kts 137°
2026-05-07 20:18 41.75144 -112.77251 22191 ft 442 kts 137°
2026-05-07 20:18 41.72947 -112.74415 21735 ft 436 kts 137°
2026-05-07 20:18 41.70778 -112.71620 21300 ft 430 kts 137°
2026-05-07 20:19 41.68638 -112.68861 20855 ft 425 kts 137°
2026-05-07 20:19 41.66519 -112.66130 20415 ft 421 kts 137°
2026-05-07 20:19 41.64418 -112.63417 19958 ft 417 kts 137°
2026-05-07 20:19 41.62334 -112.60732 19511 ft 414 kts 137°
2026-05-07 20:20 41.60265 -112.58071 19049 ft 412 kts 137°
2026-05-07 20:20 41.58209 -112.55431 18598 ft 409 kts 137°
2026-05-07 20:20 41.56160 -112.52802 18108 ft 408 kts 137°
2026-05-07 20:20 41.54115 -112.50176 17544 ft 408 kts 137°
2026-05-07 20:21 41.52065 -112.47574 17114 ft 404 kts 139°
2026-05-07 20:21 41.49996 -112.45075 16690 ft 399 kts 140°
2026-05-07 20:21 41.47910 -112.42649 16200 ft 396 kts 141°
2026-05-07 20:21 41.45826 -112.40273 15764 ft 392 kts 141°
2026-05-07 20:22 41.43810 -112.37841 15320 ft 390 kts 135°
2026-05-07 20:22 41.41941 -112.35245 14893 ft 387 kts 135°
2026-05-07 20:22 41.40097 -112.32651 14460 ft 384 kts 135°
2026-05-07 20:22 41.38276 -112.30068 14040 ft 381 kts 135°
2026-05-07 20:23 41.36472 -112.27498 13581 ft 378 kts 135°
2026-05-07 20:23 41.34682 -112.24951 13143 ft 375 kts 135°
2026-05-07 20:23 41.32909 -112.22432 12714 ft 371 kts 135°
2026-05-07 20:23 41.31148 -112.19938 12271 ft 368 kts 135°
2026-05-07 20:24 41.29397 -112.17468 11837 ft 365 kts 135°
2026-05-07 20:24 41.27657 -112.15020 11417 ft 363 kts 135°
2026-05-07 20:24 41.25951 -112.12620 11293 ft 351 kts 136°
2026-05-07 20:24 41.24307 -112.10306 11166 ft 339 kts 135°
2026-05-07 20:25 41.22700 -112.08142 11019 ft 327 kts 142°
2026-05-07 20:25 41.20869 -112.06479 11013 ft 314 kts 154°
2026-05-07 20:25 41.18971 -112.05055 11017 ft 312 kts 154°
2026-05-07 20:25 41.17089 -112.03637 11018 ft 310 kts 154°
2026-05-07 20:26 41.15194 -112.02268 11019 ft 309 kts 160°
2026-05-07 20:26 41.13154 -112.01445 10885 ft 306 kts 173°
2026-05-07 20:26 41.11007 -112.01139 10157 ft 315 kts 180°
2026-05-07 20:26 41.08810 -112.00970 9682 ft 316 kts 180°
2026-05-07 20:27 41.06624 -112.00727 9226 ft 315 kts 179°
2026-05-07 20:27 41.04447 -112.00459 8804 ft 313 kts 177°
2026-05-07 20:27 41.02294 -112.00204 8394 ft 310 kts 178°
2026-05-07 20:27 41.00148 -111.99954 7981 ft 307 kts 179°
2026-05-07 20:28 40.98043 -111.99708 7566 ft 296 kts 178°
2026-05-07 20:28 40.96058 -111.99473 7201 ft 276 kts 179°
2026-05-07 20:28 40.94205 -111.99256 6861 ft 259 kts 180°
2026-05-07 20:28 40.92470 -111.99055 6596 ft 243 kts 178°
2026-05-07 20:29 40.90816 -111.98864 6291 ft 235 kts 179°
2026-05-07 20:29 40.89239 -111.98680 6028 ft 216 kts 177°
2026-05-07 20:29 40.87821 -111.98513 5757 ft 197 kts 179°
2026-05-07 20:29 40.86470 -111.98358 5458 ft 193 kts 177°
2026-05-07 20:30 40.85126 -111.98203 5195 ft 194 kts 177°
2026-05-07 20:30 40.83830 -111.98051 4918 ft 177 kts 178°
2026-05-07 20:30 40.82667 -111.97915 4677 ft 163 kts 176°
2026-05-07 20:30 40.81554 -111.97787 4449 ft 158 kts 175°
2026-05-07 20:31 40.80465 -111.97662 4246 ft 156 kts 175°
2026-05-07 20:31 40.79516 -111.97555 4229 ft 108 kts 176°
2026-05-07 20:31 40.78946 -111.97489 4232 ft 46 kts 172°
2026-05-07 20:31 40.78710 -111.97471 4232 ft 31 kts 181°
2026-05-07 20:32 40.78516 -111.97534 4230 ft 27 kts 207°
2026-05-07 20:32 40.78501 -111.97647 4231 ft 16 kts 340°
2026-05-07 20:32 40.78609 -111.97665 4230 ft 15 kts 356°
2026-05-07 20:32 40.78733 -111.97688 4231 ft 15 kts 331°
2026-05-07 20:33 40.78754 -111.97765 4231 ft 8 kts 272°
2026-05-07 20:33 40.78750 -111.97838 4231 ft 7 kts 265°
2026-05-07 20:33 40.78746 -111.97899 4231 ft 10 kts 263°
2026-05-07 20:33 40.78728 -111.97975 4231 ft 7 kts 219°
2026-05-07 20:34 40.78684 -111.97981 4231 ft 5 kts 178°
2026-05-07 20:34 40.78669 -111.97980 4231 ft 4 kts 175°
2026-05-07 20:34 40.78657 -111.97978 4230 ft 0 kts 175°
2026-05-07 20:34 40.78653 -111.97978 4231 ft 0 kts 175°